Dalaman, Turkey

2:02 AM EET on February 08, 2016 (GMT +0200)
Dalaman

Weather History for LTBS - January, 2013

Change the Weather History Date:

Tuesday, January 29, 2013

  Actual Average Record
Temperature  
Mean Temperature 50 °F -  
Max Temperature 58 °F 58 °F 69 °F (2002)
Min Temperature 41 °F 41 °F 32 °F (2000)
Degree Days  
Heating Degree Days 16    
Moisture  
Dew Point 42 °F    
Average Humidity 76    
Maximum Humidity 100    
Minimum Humidity 39    
Precipitation  
Precipitation 0.00 in - - ()
Sea Level Pressure  
Sea Level Pressure 29.93 in    
Wind  
Wind Speed 4 mph ()    
Max Wind Speed 12 mph    
Max Gust Speed -    
Visibility 6.1 miles    
Events      
Averages and records for this station are not official NWS values.
T = Trace of Precipitation, MM = Missing Value Source: Averaged Metar Reports

Daily Weather History Graph

Daily Weather History Graph

Search for Another Location

Airport or City:

Trip Planner

Search our weather history database for the weather conditions in past years. The results will help you decide how hot, cold, wet, or windy it might be!

Date:

Astronomy

Jan. 29, 2013 Rise Set
Actual Time 7:09 AM EET 5:27 PM EET
Civil Twilight 6:41 AM EET 5:54 PM EET
Nautical Twilight 6:10 AM EET 6:25 PM EET
Astronomical Twilight 5:40 AM EET 6:56 PM EET
Moon 7:57 PM EET (1/29) 8:00 AM EET (1/29)
Length of Visible Light 11h 12m
Length of Day
10h 18m
Waning Gibbous, 95% of the Moon is Illuminated
Jan 29
Waning Gibbous
Feb 3
Last Quarter
Feb 10
New
Feb 17
First Quarter
Feb 25
Full

Hourly Weather History & Observations

Time (EET) Temp. Windchill Dew Point Humidity Pressure Visibility Wind Dir Wind Speed Gust Speed Precip Events Conditions
12:20 AM 46.4 °F 45.2 °F 44.6 °F 93% 29.95 in - ENE 3.5 mph - N/A   Clear
12:50 AM 46.4 °F - 44.6 °F 93% 29.95 in - Variable 2.3 mph - N/A   Clear
1:20 AM 46.4 °F 44.3 °F 44.6 °F 93% 29.95 in - East 4.6 mph - N/A   Clear
1:50 AM 46.4 °F 44.3 °F 44.6 °F 93% 29.95 in - NNE 4.6 mph - N/A   Clear
2:00 AM 46 °F - 44 °F 90% 29.97 in 6 mi NNE 4.6 mph - -  
2:20 AM 44.6 °F 42.2 °F 42.8 °F 93% 29.95 in - ENE 4.6 mph - N/A   Clear
2:50 AM 44.6 °F 42.2 °F 42.8 °F 93% 29.95 in - North 4.6 mph - N/A   Clear
3:20 AM 42.8 °F - 42.8 °F 100% 29.95 in - Variable 2.3 mph - N/A   Clear
3:50 AM 44.6 °F 43.1 °F 42.8 °F 93% 29.92 in - North 3.5 mph - N/A   Clear
4:20 AM 42.8 °F 40.1 °F 41.0 °F 93% 29.92 in - NNE 4.6 mph - N/A   Clear
4:50 AM 42.8 °F 39.3 °F 42.8 °F 100% 29.92 in - North 5.8 mph - N/A   Clear
5:20 AM 41.0 °F - 41.0 °F 100% 29.92 in - Variable 1.2 mph - N/A   Clear
5:50 AM 42.8 °F - 41.0 °F 93% 29.92 in - Variable 2.3 mph - N/A   Clear
6:20 AM 42.8 °F 38.6 °F 41.0 °F 93% 29.95 in - North 6.9 mph - N/A   Clear
6:50 AM 42.8 °F 40.1 °F 41.0 °F 93% 29.95 in - East 4.6 mph - N/A   Clear
7:20 AM 42.8 °F 41.1 °F 41.0 °F 93% 29.95 in - ENE 3.5 mph - N/A   Clear
7:50 AM 42.8 °F - 41.0 °F 93% 29.95 in - Variable 2.3 mph - N/A   Clear
8:00 AM 43 °F - 41 °F 91% 29.96 in 6 mi ENE 2.3 mph - -  
8:20 AM 46.4 °F 44.3 °F 41.0 °F 81% 29.95 in - East 4.6 mph - N/A   Clear
8:50 AM 48.2 °F - 41.0 °F 76% 29.95 in - East 4.6 mph - N/A   Clear
9:20 AM 50.0 °F - 44.6 °F 82% 29.98 in - NNE 5.8 mph - N/A   Clear
9:50 AM 51.8 °F - 42.8 °F 71% 29.98 in - North 8.1 mph - N/A   Clear
10:20 AM 53.6 °F - 41.0 °F 62% 29.98 in - NNW 9.2 mph - N/A   Clear
10:50 AM 55.4 °F - 42.8 °F 63% 29.98 in - NNW 6.9 mph - N/A   Clear
11:20 AM 55.4 °F - 41.0 °F 58% 29.98 in - NNW 5.8 mph - N/A   Clear
11:50 AM 55.4 °F - 39.2 °F 54% 29.95 in - NNW 6.9 mph - N/A   Clear
12:20 PM 57.2 °F - 39.2 °F 51% 29.95 in - NNW 4.6 mph - N/A   Clear
12:50 PM 57.2 °F - 37.4 °F 48% 29.92 in 6.2 mi NNW 6.9 mph - N/A   Mostly Cloudy
1:20 PM 57.2 °F - 37.4 °F 48% 29.92 in 6.2 mi NNW 10.4 mph - N/A   Mostly Cloudy
1:50 PM 59.0 °F - 39.2 °F 48% 29.89 in 6.2 mi NNW 10.4 mph - N/A   Mostly Cloudy
2:00 PM 58 °F - 40 °F 39% 29.92 in 6 mi NNW 11.5 mph - -   Scattered Clouds
2:20 PM 59.0 °F - 39.2 °F 48% 29.89 in 6.2 mi WNW 6.9 mph - N/A   Scattered Clouds
2:50 PM 57.2 °F - 41.0 °F 55% 29.89 in 6.2 mi West 9.2 mph - N/A   Mostly Cloudy
3:20 PM 57.2 °F - 39.2 °F 51% 29.92 in 6.2 mi West 8.1 mph - N/A   Mostly Cloudy
3:50 PM 57.2 °F - 37.4 °F 48% 29.89 in 6.2 mi West 4.6 mph - N/A   Mostly Cloudy
4:20 PM 57.2 °F - 41.0 °F 55% 29.89 in 6.2 mi NNW 3.5 mph - N/A   Mostly Cloudy
4:50 PM 57.2 °F - 42.8 °F 59% 29.89 in 6.2 mi North 4.6 mph - N/A   Mostly Cloudy
5:20 PM 53.6 °F - 42.8 °F 67% 29.89 in 6.2 mi Variable 2.3 mph - N/A   Mostly Cloudy
5:50 PM 51.8 °F - 44.6 °F 76% 29.89 in 6.2 mi Variable 2.3 mph - N/A   Mostly Cloudy
6:20 PM 50.0 °F - 44.6 °F 82% 29.89 in - East 3.5 mph - N/A   Clear
6:50 PM 50.0 °F - 44.6 °F 82% 29.89 in - ENE 3.5 mph - N/A   Clear
7:20 PM 50.0 °F - 44.6 °F 82% 29.89 in - ENE 3.5 mph - N/A   Clear
7:50 PM 48.2 °F - 44.6 °F 87% 29.89 in - ENE 4.6 mph - N/A   Clear
8:00 PM 49 °F - 45 °F 79% 29.92 in 6 mi ENE 4.6 mph - -   Clear
8:20 PM 48.2 °F - 44.6 °F 87% 29.92 in - NNE 4.6 mph - N/A   Clear
8:50 PM 48.2 °F - 42.8 °F 82% 29.92 in - NE 3.5 mph - N/A   Clear
9:20 PM 48.2 °F - 41.0 °F 76% 29.92 in - East 4.6 mph - N/A   Clear
9:50 PM 48.2 °F - 41.0 °F 76% 29.92 in - NE 5.8 mph - N/A   Clear
10:20 PM 48.2 °F - 41.0 °F 76% 29.92 in - ENE 5.8 mph - N/A   Clear
10:50 PM 46.4 °F 43.5 °F 41.0 °F 81% 29.92 in - NE 5.8 mph - N/A   Clear
11:20 PM 48.2 °F - 41.0 °F 76% 29.92 in - ENE 5.8 mph - N/A   Clear
11:50 PM 46.4 °F 42.9 °F 41.0 °F 81% 29.92 in - ENE 6.9 mph - N/A   Clear